When you browse on this site, cookies collect data to enhance your experience and personalize the content and advertising you see.
Visit our Privacy Policy to learn more. By continuing to use the site, you agree to this use of cookies and data.
  • en France
  • Liste des pays
  • À 7 jours
  • Température de l'eau
  • Carte satellitaire
  • Carte météo
  • Widgets météo
  • user-avatar
    Se connecter

    Météo par heure à Chertovaya

    Ce jour, 10 Décembre, Lundi

    Heure Température Précipitation Vent Pression Humidité
    00:00 -1°C° 0.2 mm 3 m/s 734 mmHg 96%
    01:00 -1°C° 0.2 mm 3 m/s 734 mmHg 96%
    02:00 -1°C° 0.2 mm 3 m/s 734 mmHg 96%
    03:00 -1°C° 0 mm 3 m/s 734 mmHg 96%
    04:00 -1°C° 0 mm 2 m/s 734 mmHg 96%
    05:00 -2°C° 0 mm 2 m/s 734 mmHg 97%
    06:00 -2°C° 0 mm 2 m/s 734 mmHg 96%
    07:00 -3°C° 0 mm 2 m/s 734 mmHg 96%
    08:00 -3°C° 0 mm 2 m/s 734 mmHg 96%
    09:00 -3°C° 0 mm 2 m/s 734 mmHg 95%
    10:00 -2°C° 0 mm 2 m/s 735 mmHg 95%
    11:00 -2°C° 0 mm 2 m/s 735 mmHg 94%
    12:00 -2°C° 0 mm 2 m/s 735 mmHg 94%
    13:00 -2°C° 0 mm 2 m/s 735 mmHg 95%
    14:00 -2°C° 0 mm 2 m/s 735 mmHg 95%
    15:00 -2°C° 0 mm 2 m/s 735 mmHg 95%
    16:00 -2°C° 0 mm 2 m/s 735 mmHg 96%
    17:00 -2°C° 0 mm 2 m/s 735 mmHg 97%
    18:00 -2°C° 0.1 mm 2 m/s 735 mmHg 97%
    19:00 -2°C° 0.1 mm 2 m/s 735 mmHg 97%
    20:00 -2°C° 0.1 mm 2 m/s 735 mmHg 97%
    21:00 -2°C° 0.2 mm 2 m/s 735 mmHg 97%
    22:00 +1°C° 0.2 mm 1 m/s 735 mmHg 97%
    23:00 +1°C° 0.2 mm 1 m/s 735 mmHg 97%

    Demain, 11 Décembre, Mardi

    Heure Température Précipitation Vent Pression Humidité
    00:00 +1°C° 0.2 mm 1 m/s 735 mmHg 97%
    01:00 +1°C° 0.2 mm 1 m/s 735 mmHg 97%
    02:00 +1°C° 0.2 mm 1 m/s 735 mmHg 97%
    03:00 +1°C° 0.1 mm 1 m/s 735 mmHg 97%
    04:00 +1°C° 0.1 mm 1 m/s 735 mmHg 97%
    05:00 +1°C° 0.1 mm 1 m/s 735 mmHg 97%
    06:00 0°C° 0 mm 1 m/s 735 mmHg 97%
    07:00 0°C° 0 mm 1 m/s 736 mmHg 97%
    08:00 -1°C° 0 mm 1 m/s 736 mmHg 97%
    09:00 0°C° 0 mm 1 m/s 737 mmHg 96%
    10:00 0°C° 0 mm 1 m/s 737 mmHg 96%
    11:00 +1°C° 0 mm 1 m/s 737 mmHg 96%
    12:00 +1°C° 0 mm 1 m/s 738 mmHg 95%
    13:00 +1°C° 0 mm 1 m/s 738 mmHg 95%
    14:00 +1°C° 0 mm 1 m/s 738 mmHg 95%
    15:00 0°C° 0 mm 0 m/s 738 mmHg 95%
    16:00 0°C° 0 mm 0 m/s 739 mmHg 95%
    17:00 -1°C° 0 mm 0 m/s 739 mmHg 95%
    18:00 0°C° 0 mm 1 m/s 739 mmHg 95%
    19:00 0°C° 0 mm 1 m/s 740 mmHg 94%
    20:00 0°C° 0 mm 1 m/s 740 mmHg 94%
    21:00 -2°C° 0 mm 2 m/s 740 mmHg 94%
    22:00 -2°C° 0 mm 2 m/s 740 mmHg 94%
    23:00 -2°C° 0 mm 2 m/s 740 mmHg 95%

    Après-demain, 12 Décembre, Mercredi

    Heure Température Précipitation Vent Pression Humidité
    00:00 -2°C° 0 mm 3 m/s 740 mmHg 94%
    01:00 -2°C° 0 mm 3 m/s 740 mmHg 94%
    02:00 -3°C° 0 mm 4 m/s 740 mmHg 93%
    03:00 -3°C° 0 mm 4 m/s 740 mmHg 93%
    04:00 -2°C° 0 mm 4 m/s 740 mmHg 93%
    05:00 -2°C° 0 mm 5 m/s 740 mmHg 93%
    06:00 -2°C° 0.1 mm 5 m/s 740 mmHg 93%
    07:00 -2°C° 0.1 mm 5 m/s 740 mmHg 93%
    08:00 -3°C° 0.1 mm 6 m/s 740 mmHg 94%
    09:00 -2°C° 0.2 mm 6 m/s 740 mmHg 94%
    10:00 -2°C° 0.2 mm 6 m/s 740 mmHg 95%
    11:00 -2°C° 0.2 mm 6 m/s 739 mmHg 95%
    12:00 -2°C° 0.2 mm 6 m/s 739 mmHg 95%
    13:00 -2°C° 0.2 mm 6 m/s 739 mmHg 95%
    14:00 -2°C° 0.2 mm 6 m/s 739 mmHg 94%
    15:00 -2°C° 0.2 mm 6 m/s 739 mmHg 94%
    16:00 -2°C° 0.2 mm 6 m/s 739 mmHg 93%
    17:00 -2°C° 0.2 mm 6 m/s 739 mmHg 93%
    18:00 -2°C° 0.2 mm 6 m/s 739 mmHg 92%
    19:00 -2°C° 0.2 mm 6 m/s 739 mmHg 92%
    20:00 -2°C° 0.2 mm 6 m/s 739 mmHg 92%
    21:00 -3°C° 0.3 mm 6 m/s 739 mmHg 92%
    22:00 -3°C° 0.3 mm 6 m/s 739 mmHg 92%
    23:00 -2°C° 0.3 mm 5 m/s 739 mmHg 92%

    13 Décembre, Jeudi

    Heure Température Précipitation Vent Pression Humidité
    00:00 -2°C° 0.1 mm 5 m/s 739 mmHg 92%
    01:00 -2°C° 0.1 mm 5 m/s 739 mmHg 93%
    02:00 -2°C° 0.1 mm 5 m/s 739 mmHg 93%
    03:00 -2°C° 0.1 mm 5 m/s 739 mmHg 93%
    04:00 -2°C° 0.1 mm 5 m/s 739 mmHg 93%
    05:00 -4°C° 0.1 mm 5 m/s 739 mmHg 93%
    06:00 -2°C° 0 mm 5 m/s 739 mmHg 93%
    07:00 -2°C° 0 mm 5 m/s 740 mmHg 93%
    08:00 -2°C° 0 mm 5 m/s 740 mmHg 93%
    09:00 -2°C° 0 mm 5 m/s 740 mmHg 93%
    10:00 -2°C° 0 mm 5 m/s 741 mmHg 92%
    11:00 -2°C° 0 mm 5 m/s 741 mmHg 92%
    12:00 -2°C° 0 mm 5 m/s 741 mmHg 92%
    13:00 -2°C° 0 mm 5 m/s 741 mmHg 91%
    14:00 -2°C° 0 mm 4 m/s 742 mmHg 91%
    15:00 -3°C° 0 mm 4 m/s 742 mmHg 91%
    16:00 -3°C° 0 mm 4 m/s 742 mmHg 91%
    17:00 -3°C° 0 mm 4 m/s 743 mmHg 92%
    18:00 -4°C° 0 mm 4 m/s 743 mmHg 92%
    19:00 -4°C° 0 mm 4 m/s 743 mmHg 92%
    20:00 -4°C° 0 mm 4 m/s 744 mmHg 92%
    21:00 -5°C° 0 mm 4 m/s 744 mmHg 92%
    22:00 -5°C° 0 mm 4 m/s 744 mmHg 93%
    23:00 -5°C° 0 mm 4 m/s 744 mmHg 93%

    14 Décembre, Vendredi

    Heure Température Précipitation Vent Pression Humidité
    00:00 -5°C° 0 mm 4 m/s 745 mmHg 93%
    01:00 -7°C° 0 mm 4 m/s 745 mmHg 94%
    02:00 -7°C° 0 mm 4 m/s 745 mmHg 94%
    03:00 -7°C° 0 mm 4 m/s 745 mmHg 94%
    04:00 -7°C° 0 mm 3 m/s 745 mmHg 94%
    05:00 -7°C° 0 mm 3 m/s 746 mmHg 95%
    06:00 -7°C° 0 mm 3 m/s 746 mmHg 95%
    07:00 -7°C° 0 mm 3 m/s 746 mmHg 95%
    08:00 -7°C° 0 mm 3 m/s 747 mmHg 95%
    09:00 -7°C° 0 mm 3 m/s 747 mmHg 94%
    10:00 -6°C° 0 mm 3 m/s 747 mmHg 94%
    11:00 -5°C° 0 mm 3 m/s 748 mmHg 94%
    12:00 -5°C° 0 mm 3 m/s 748 mmHg 94%
    13:00 -5°C° 0 mm 3 m/s 748 mmHg 94%
    14:00 -5°C° 0 mm 4 m/s 748 mmHg 94%
    15:00 -5°C° 0 mm 4 m/s 748 mmHg 94%
    16:00 -5°C° 0 mm 4 m/s 749 mmHg 94%
    17:00 -5°C° 0 mm 4 m/s 749 mmHg 95%
    18:00 -5°C° 0 mm 3 m/s 749 mmHg 94%
    19:00 -5°C° 0 mm 3 m/s 749 mmHg 94%
    20:00 -5°C° 0 mm 3 m/s 749 mmHg 94%
    21:00 -6°C° 0 mm 3 m/s 749 mmHg 94%
    22:00 -6°C° 0 mm 3 m/s 750 mmHg 94%
    23:00 -5°C° 0 mm 2 m/s 750 mmHg 94%

    15 Décembre, Samedi

    Heure Température Précipitation Vent Pression Humidité
    00:00 -5°C° 0 mm 2 m/s 750 mmHg 94%
    01:00 -5°C° 0 mm 2 m/s 750 mmHg 94%
    02:00 -6°C° 0 mm 2 m/s 750 mmHg 94%
    03:00 -6°C° 0 mm 2 m/s 750 mmHg 94%
    04:00 -6°C° 0 mm 2 m/s 750 mmHg 94%
    05:00 -6°C° 0 mm 2 m/s 750 mmHg 94%
    06:00 -6°C° 0 mm 2 m/s 751 mmHg 94%
    07:00 -6°C° 0 mm 2 m/s 751 mmHg 94%
    08:00 -6°C° 0 mm 2 m/s 751 mmHg 93%
    09:00 -6°C° 0 mm 2 m/s 752 mmHg 93%
    10:00 -5°C° 0 mm 2 m/s 752 mmHg 92%
    11:00 -5°C° 0 mm 2 m/s 752 mmHg 91%
    12:00 -5°C° 0 mm 2 m/s 752 mmHg 91%
    13:00 -5°C° 0 mm 2 m/s 752 mmHg 91%
    14:00 -5°C° 0 mm 2 m/s 752 mmHg 91%
    15:00 -5°C° 0 mm 2 m/s 752 mmHg 92%
    16:00 -5°C° 0 mm 2 m/s 753 mmHg 93%
    17:00 -6°C° 0 mm 2 m/s 753 mmHg 93%
    18:00 -6°C° 0 mm 2 m/s 753 mmHg 93%
    19:00 -6°C° 0 mm 2 m/s 753 mmHg 93%
    20:00 -6°C° 0 mm 2 m/s 753 mmHg 93%
    21:00 -6°C° 0 mm 2 m/s 753 mmHg 93%
    22:00 -6°C° 0 mm 2 m/s 753 mmHg 93%
    23:00 -6°C° 0 mm 2 m/s 753 mmHg 93%
    Voir plus